Preview of NWS' New Version of Forecast
This preview is not operational and should not be used for support decisions.

Regional Weather Roundup (RWR)

Issued by National Weather Service (NWS)

                            
000
ASUS45 KCYS 230310
RWRWY 

WYOMING REGIONAL WEATHER ROUNDUP
NATIONAL WEATHER SERVICE CHEYENNE WY
900 PM MDT THU AUG 22 2019

NOTE:  "FAIR" INDICATES FEW OR NO CLOUDS BELOW 12,000 FEET
WITH NO SIGNIFICANT WEATHER AND/OR OBSTRUCTIONS TO VISIBILITY.

WYZ001-230400-
YELLOWSTONE NATIONAL PARK
  
CITY           SKY/WX    TMP DP  RH WIND       PRES   REMARKS
LK YELLOWSTONE   N/A     50  44  80 VRB3      30.16R                  
W YELLOWSTONE  NOT AVBL                                               

$$
WYZ002>013-054>058-071-098>099-230400-
NORTHERN WYOMING
  
CITY           SKY/WX    TMP DP  RH WIND       PRES   REMARKS
JACKSON        MOCLDY    64  41  42 CALM      30.03R                  
CODY           FAIR      65  49  56 NW7       29.95R                  
GREYBULL       FAIR      78  49  35 N12       29.79F                  
WORLAND        FAIR      69  49  48 E13       29.81R                  
SHERIDAN       FAIR      77  49  37 N17G28    29.85R                  
BUFFALO        FAIR      73  48  41 N22G33    29.89R                  
GILLETTE       FAIR      77  59  53 SE24G40   29.76S                  
HULETT         FAIR      70  61  73 E3        29.84                   
NEWCASTLE      FAIR      73  54  49 SE17G33   29.87                   

$$
WYZ014>020-022>026-101>103-230400-
CENTRAL WYOMING
  
CITY           SKY/WX    TMP DP  RH WIND       PRES   REMARKS
BIG PINEY      FAIR      62  30  29 NW8       30.03R                  
PINEDALE       FAIR      64  28  25 W5        30.04                   
DUBOIS         MOCLDY    64  30  27 W8        30.03                   
LANDER         FAIR      77  35  21 N3        29.91R                  
RIVERTON       FAIR      75  39  27 E5        29.88R                  
CASPER         FAIR      68  28  22 SW7       29.85R                  
DOUGLAS        FAIR      78  42  27 SE16      29.84R                  

$$
WYZ021-027>030-104>119-230400-
SOUTHERN WYOMING
  
CITY           SKY/WX    TMP DP  RH WIND       PRES   REMARKS
EVANSTON       FAIR      68  29  23 W13       30.05R                  
KEMMERER       FAIR      64  32  29 NW12      30.06                   
ROCK SPRINGS   FAIR      74  25  16 SW14      30.01R                  
DIXON          FAIR      64  22  19 E6G17     30.03S                  
RAWLINS        FAIR      74  19  12 W10       30.00R                  
SARATOGA       FAIR      68  32  26 SE13      30.05F                  
LARAMIE        FAIR      66  35  31 S18       30.11R                  
CHEYENNE       FAIR      70  43  37 SE13G20   30.07R                  
TORRINGTON     FAIR      72  51  47 SE6G23    29.88R                  
PINE BLUFFS    FAIR      66  45  45 SE17G24   30.01R                  

$$
  

000
ASUS45 KCYS 230310
RWRWY 

WYOMING REGIONAL WEATHER ROUNDUP
NATIONAL WEATHER SERVICE CHEYENNE WY
900 PM MDT THU AUG 22 2019

NOTE:  "FAIR" INDICATES FEW OR NO CLOUDS BELOW 12,000 FEET
WITH NO SIGNIFICANT WEATHER AND/OR OBSTRUCTIONS TO VISIBILITY.

WYZ001-230400-
...YELLOWSTONE NATIONAL PARK...
  
CITY           SKY/WX    TMP DP  RH WIND       PRES   REMARKS
LK YELLOWSTONE   N/A     50  44  80 VRB3      30.16R                  
W YELLOWSTONE  NOT AVBL                                               

$$
WYZ002>013-054>058-071-098>099-230400-
...NORTHERN WYOMING...
  
CITY           SKY/WX    TMP DP  RH WIND       PRES   REMARKS
JACKSON        MOCLDY    64  41  42 CALM      30.03R                  
CODY           MOCLDY    65  49  56 NW7       29.95R                  
GREYBULL       MOCLDY    78  49  35 N12       29.79F                  
WORLAND        MOCLDY    69  49  48 E13       29.81R                  
SHERIDAN       CLOUDY    77  49  37 N17G28    29.85R                  
BUFFALO        MOCLDY    73  48  41 N22G33    29.89R                  
GILLETTE       CLOUDY    77  59  53 SE24G40   29.76S                  
HULETT         FAIR      70  61  73 E3        29.84F                  
NEWCASTLE      FAIR      73  54  49 SE17G33   29.87S                  

$$
WYZ014>020-022>026-101>103-230400-
...CENTRAL WYOMING...
  
CITY           SKY/WX    TMP DP  RH WIND       PRES   REMARKS
BIG PINEY      MOCLDY    62  30  29 NW8       30.03R                  
PINEDALE       CLOUDY    64  28  25 W5        30.04R                  
DUBOIS         MOCLDY    64  30  27 W8        30.03R                  
LANDER         CLOUDY    77  35  21 N3        29.91R                  
RIVERTON       CLOUDY    75  39  27 E5        29.88R                  
CASPER         MOCLDY    68  28  22 SW7       29.85R                  
DOUGLAS        MOCLDY    78  42  27 SE16      29.84R                  

$$
WYZ021-027>030-104>119-230400-
...SOUTHERN WYOMING...
  
CITY           SKY/WX    TMP DP  RH WIND       PRES   REMARKS
EVANSTON       MOCLDY    68  29  23 W13       30.05R                  
KEMMERER       MOCLDY    64  32  29 NW12      30.06R                  
FORT BRIDGER   NOT AVBL                                               
ROCK SPRINGS   CLOUDY    74  25  16 SW14      30.01R                  
DIXON          FAIR      64  22  19 E6G17     30.03S                  
RAWLINS        CLOUDY    74  19  12 W10       30.00R                  
SARATOGA       FAIR      68  32  26 SE13      30.05F                  
LARAMIE        CLOUDY    66  35  31 S18       30.11R                  
CHEYENNE       CLOUDY    70  43  37 SE13G20   30.07R                  
TORRINGTON     CLOUDY    72  51  47 SE6G23    29.88R                  
PINE BLUFFS    FAIR      66  45  45 SE17G24   30.01R                  

$$